Regional Weather Roundup
Issued by NWS

Home | Current Version | Previous Version | Text Only | Print | Product List | Glossary Off
Versions: 1 2 3 4 5 6 7 8 9 10 11 12 13 14 15 16 17 18 19 20 21 22 23 24 25 26 27 28 29 30 31 32 33 34 35 36 37 38 39 40 41 42 43 44 45 46 47 48 49 50

000
ASUS45 KSLC 281710
RWRUT

UTAH REGIONAL WEATHER ROUNDUP
NATIONAL WEATHER SERVICE SALT LAKE CITY UT
1100 AM MDT SUN AUG 28 2016

UTZ001>011-023>025-281800-

NORTHERN UTAH

CITY           SKY/WX    TMP DP  RH WIND       PRES   REMARKS
BRIGHAM CITY     N/A     76  34  21 CALM      30.19R
HILL AFB       SUNNY     75  37  25 VRB5      30.21R
LOGAN          SUNNY     70  32  24 CALM      30.19R
OGDEN          SUNNY     77  37  23 S5        30.19R
PROVO AIRPORT  SUNNY     75  41  29 VRB5      30.22R
SALT LAKE CITY SUNNY     81  42  25 S14       30.16R
VERNAL         SUNNY     69  44  40 SE6       30.26S
WENDOVER       SUNNY     75  30  19 NE5       30.18R
HEBER CITY     SUNNY     64  34  32 CALM      30.26S
WEST JORDAN    SUNNY     75  45  33 SE16      30.20S

$$

UTZ012>022-026-027-281800-

SOUTHERN/CENTRAL UTAH

CITY           SKY/WX    TMP DP  RH WIND       PRES   REMARKS
BLANDING       MOSUNNY   68  47  47 S3        30.39R
BRYCE CANYON   SUNNY     64  42  44 N3        30.41R
CEDAR CITY     SUNNY     69  48  47 VRB3      30.28R
MILFORD        SUNNY     74  46  36 SW17      30.24R
MOAB/CYNLANDS  MOSUNNY   73  49  42 S13       30.24R
PRICE          SUNNY     70  42  36 VRB5      30.31R
ST GEORGE      SUNNY     72  55  56 CALM      30.19S

$$

REGIONAL REPORTS     COLORADO/ARIZONA

CITY           SKY/WX    TMP DP  RH WIND       PRES   REMARKS
CRAIG, CO      SUNNY     71  37  28 CALM      30.30S
GRAND JUNCTION CLOUDY    66  50  56 SE8       30.27R
RIFLE          CLOUDY    64  48  56 CALM      30.30S
MONTROSE       CLOUDY    64  47  53 VRB5      30.32S
CORTEZ         CLOUDY    70  47  43 N5        30.31S
PAGE, AZ       SUNNY     73  53  49 E6        30.23R
GRAND CANYON   SUNNY     66  50  56 E8        30.35S
KINGMAN        SUNNY     78  51  38 NE7       30.16S
FLAGSTAFF      MOSUNNY   63  48  58 NE7       30.36R

$$

REGIONAL REPORTS    NEVADA/IDAHO/WYOMING

CITY           SKY/WX    TMP DP  RH WIND       PRES   REMARKS
LAS VEGAS, NV  SUNNY     84  49  29 N3        30.07S
ELY            SUNNY     70  41  34 VRB3      30.31S
ELKO           SUNNY     72  21  14 CALM      30.23S
POCATELLO, ID  SUNNY     77  38  24 SW7       30.18R
BURLEY         SUNNY     72  42  34 W8        30.16R
EVANSTON, WY   SUNNY     71  31  22 SW14      30.34R
ROCK SPRINGS   SUNNY     71  28  20 W13       30.31S

$$



USA.gov is the U.S. government's official web portal to all federal, state and local government web resources and services.